sat.trackr.live / text

‹ back to catalog

STARLINK-4543

NORAD 53429 · 2022-097AT

PAYLOAD ACTIVE UNKNOWN

§ Identity

Operator
Country
US
Launch date
2022-08-10
Launch site
AFETR
Launch vehicle
Mass (kg)
RCS (m²)

Purposes: comms

External: N2YO · Heavens-Above · Gunter

§ Orbital elements

Epoch: 2026-09-19T19:37:36.995520Z

Period
93.79 min
Inclination
53.1586°
Eccentricity
0.0001251
Mean motion
15.35395025 rev/d
Perigee alt
458.9 km
Apogee alt
460.6 km
Semi-major
6,837.9 km
B*
1.5339e-5
RAAN
297.0400°
Arg perigee
90.6971°
Mean anomaly
269.4175°
Rev number
22,830

§ Raw data

STARLINK-45431 53429U 22097AT  26262.81778930  .00000154  00000+0  15339-4 0  99982 53429  53.1586 297.0400 0001251  90.6971 269.4175 15.35395025228303

JSON: /api/v1/satellites/53429 · /tle

For live sub-satellite position, see the globe view (requires WebGL).

§ Visibility from observer

Set your observer location to see the next 7 days of passes ≥ 10°. The values pass through the URL so the page stays shareable.

No JS? Fill the form by hand. The geolocation button needs JavaScript.